Exeter, United Kingdom

12:37 AM BST on March 27, 2017 (GMT +0100)
Exeter

Weather History for EGTE - March, 2013

Change the Weather History Date:

Saturday, March 9, 2013

  Actual Average Record
Temperature  
Mean Temperature 46 °F -  
Max Temperature 52 °F 51 °F 60 °F (2017)
Min Temperature 41 °F 39 °F 23 °F (2004)
Degree Days  
Heating Degree Days 18    
Moisture  
Dew Point 47 °F    
Average Humidity 97    
Maximum Humidity 100    
Minimum Humidity 87    
Precipitation  
Precipitation 0.00 in - - ()
Sea Level Pressure  
Sea Level Pressure 29.56 in    
Wind  
Wind Speed 5 mph ()    
Max Wind Speed 10 mph    
Max Gust Speed -    
Visibility 3.7 miles    
Events Fog , Rain    
Averages and records for this station are not official NWS values.
T = Trace of Precipitation, MM = Missing Value Source: Averaged Metar Reports

Daily Weather History Graph

Daily Weather History Graph

Search for Another Location

Airport or City:

Trip Planner

Search our weather history database for the weather conditions in past years. The results will help you decide how hot, cold, wet, or windy it might be!

Date:

Astronomy

Mar. 09, 2013 Rise Set
Actual Time 6:40 AM GMT 6:08 PM GMT
Civil Twilight 6:07 AM GMT 6:41 PM GMT
Nautical Twilight 5:29 AM GMT 7:19 PM GMT
Astronomical Twilight 4:51 AM GMT 7:58 PM GMT
Moon 5:08 AM GMT (3/9) 3:44 PM GMT (3/9)
Length of Visible Light 12h 33m
Length of Day
11h 28m
Waning Crescent, 7% of the Moon is Illuminated
Mar 9
Waning Crescent
Mar 11
New
Mar 19
First Quarter
Mar 27
Full
Apr 3
Last Quarter

Hourly Weather History & Observations

Time (GMT) Temp. Windchill Dew Point Humidity Pressure Visibility Wind Dir Wind Speed Gust Speed Precip Events Conditions
12:20 AM 48.2 °F - 48.2 °F 100% 29.50 in 6.2 mi South 3.5 mph - N/A   Scattered Clouds
12:50 AM 48.2 °F - 48.2 °F 100% 29.53 in 6.2 mi South 5.8 mph - N/A   Scattered Clouds
1:20 AM 48.2 °F - 48.2 °F 100% 29.53 in 6.2 mi South 6.9 mph - N/A   Scattered Clouds
1:50 AM 48.2 °F - 46.4 °F 93% 29.53 in 6.2 mi SSE 4.6 mph - N/A   Partly Cloudy
2:50 AM 45 °F - 45 °F 99%  in - SSE 3.5 mph - -  
5:20 AM 41.0 °F 39.0 °F 39.2 °F 93% 29.53 in 1.6 mi Variable 3.5 mph - N/A   Haze
5:50 AM 43 °F - 43 °F 98%  in - East 2.3 mph - -  
5:50 AM 42.8 °F 41.1 °F 41.0 °F 93% 29.53 in 2.5 mi Variable 3.5 mph - N/A   Mostly Cloudy
6:20 AM 41.0 °F - 41.0 °F 100% 29.53 in 1.2 mi Variable 1.2 mph - N/A Fog Fog
6:50 AM 41.0 °F - 41.0 °F 100% 29.53 in 0.3 mi NE 2.3 mph - N/A Fog Fog
7:20 AM 42.8 °F - 42.8 °F 100% 29.53 in 0.9 mi Variable 2.3 mph - N/A   Mostly Cloudy
7:50 AM 44.6 °F 42.2 °F 44.6 °F 100% 29.56 in 1.9 mi ENE 4.6 mph - N/A   Mostly Cloudy
8:20 AM 46.4 °F 44.3 °F 46.4 °F 100% 29.56 in 2.5 mi ESE 4.6 mph - N/A   Mostly Cloudy
8:50 AM 48 °F - 48 °F 100%  in - SSE 3.5 mph - -  
8:50 AM 48.2 °F - 48.2 °F 100% 29.56 in 3.1 mi SE 6.9 mph - N/A   Mostly Cloudy
9:20 AM 48.2 °F - 48.2 °F 100% 29.56 in 3.7 mi SE 4.6 mph - N/A   Mostly Cloudy
9:50 AM 48.2 °F - 48.2 °F 100% 29.56 in 3.1 mi SSE 4.6 mph - N/A   Mostly Cloudy
10:20 AM 50.0 °F - 48.2 °F 94% 29.59 in 3.1 mi ESE 6.9 mph - N/A   Mostly Cloudy
10:50 AM 50.0 °F - 48.2 °F 94% 29.56 in 3.1 mi ESE 5.8 mph - N/A   Mostly Cloudy
11:20 AM 50.0 °F - 48.2 °F 94% 29.59 in 3.1 mi SSE 5.8 mph - N/A   Mostly Cloudy
11:50 AM 51 °F - 51 °F 99%  in - SSE 6.9 mph - -  
11:50 AM 51.8 °F - 50.0 °F 94% 29.59 in 3.7 mi SSE 5.8 mph - N/A   Mostly Cloudy
12:20 PM 51.8 °F - 48.2 °F 88% 29.59 in 3.7 mi SSE 8.1 mph - N/A   Mostly Cloudy
12:50 PM 50.0 °F - 48.2 °F 94% 29.59 in 4.3 mi SE 6.9 mph - N/A   Mostly Cloudy
1:20 PM 50.0 °F - 48.2 °F 94% 29.59 in 3.7 mi SE 8.1 mph - N/A   Mostly Cloudy
1:50 PM 50.0 °F - 48.2 °F 94% 29.59 in 3.7 mi ESE 9.2 mph - N/A Rain Rain Showers
2:20 PM 50.0 °F - 48.2 °F 94% 29.56 in 4.3 mi ESE 6.9 mph - N/A Rain Light Rain Showers
2:50 PM 51 °F - 51 °F 100%  in - SE 8.1 mph - -  
2:50 PM 51.8 °F - 50.0 °F 94% 29.59 in 5.0 mi ESE 10.4 mph - N/A   Mostly Cloudy
3:20 PM 50.0 °F - 48.2 °F 94% 29.56 in 5.0 mi ESE 5.8 mph - N/A   Mostly Cloudy
3:50 PM 50.0 °F - 48.2 °F 94% 29.56 in 5.6 mi SE 6.9 mph - N/A   Mostly Cloudy
4:20 PM 50.0 °F - 48.2 °F 94% 29.56 in 5.6 mi SE 6.9 mph - N/A   Mostly Cloudy
4:50 PM 50.0 °F - 48.2 °F 94% 29.56 in 5.6 mi SE 6.9 mph - N/A   Scattered Clouds
5:20 PM 50.0 °F - 46.4 °F 87% 29.59 in 5.6 mi SSE 8.1 mph - N/A   Mostly Cloudy
5:50 PM 48 °F - 48 °F 98%  in - ESE 5.8 mph - -  
5:50 PM 48.2 °F - 46.4 °F 93% 29.59 in 5.0 mi ESE 8.1 mph - N/A   Mostly Cloudy
6:20 PM 46.4 °F 42.9 °F 46.4 °F 100% 29.59 in 2.5 mi SE 6.9 mph - N/A   Scattered Clouds
6:50 PM 46.4 °F 45.2 °F 46.4 °F 100% 29.59 in 2.5 mi Variable 3.5 mph - N/A   Mostly Cloudy
7:20 PM 46.4 °F 45.2 °F 46.4 °F 100% 29.59 in 2.5 mi East 3.5 mph - N/A   Mostly Cloudy
8:50 PM 46 °F - 46 °F 99%  in - East 2.3 mph - -  
11:50 PM 46 °F - 46 °F 97%  in - ENE 6.9 mph - -